This is the latest recevied weather packets stored in our database for station/object AA7VG. If no packets are shown the sender has not sent any weather packets the latest 10 day(s).
| Time | Temp. | Humidity | Pressure | Rain* | Wind** | Luminosity | Snow |
|---|---|---|---|---|---|---|---|
| 1777779741 | 15° C | 38% | 1014.6 hPa | 0 mm | - | - | - |
| 1777779438 | 15.56° C | 37% | 1014.5 hPa | 0 mm | - | - | - |
| 1777779135 | 15.56° C | 36% | 1014.5 hPa | 0 mm | - | - | - |
| 1777778834 | 16.11° C | 36% | 1014.5 hPa | 0 mm | - | - | - |
| 1777778532 | 16.67° C | 35% | 1014.5 hPa | 0 mm | - | - | - |
| 1777778229 | 17.22° C | 34% | 1014.4 hPa | 0 mm | - | - | - |
| 1777777927 | 17.22° C | 33% | 1014.4 hPa | 0 mm | - | - | - |
| 1777777623 | 16.67° C | 33% | 1014.3 hPa | 0 mm | - | - | - |
| 1777777319 | 16.67° C | 34% | 1013.9 hPa | 0 mm | - | - | - |
| 1777777016 | 16.11° C | 35% | 1014.2 hPa | 0 mm | - | - | - |
| 1777776714 | 16.11° C | 37% | 1014 hPa | 0 mm | - | - | - |
| 1777776410 | 16.67° C | 36% | 1014 hPa | 0 mm | - | - | - |
| 1777776108 | 16.67° C | 35% | 1013.8 hPa | 0 mm | - | - | - |
| 1777775805 | 16.67° C | 35% | 1013.9 hPa | 0 mm | - | - | - |
| 1777775501 | 16.67° C | 36% | 1013.6 hPa | 0 mm | - | - | - |
| 1777775197 | 16.67° C | 37% | 1013.6 hPa | 0 mm | - | - | - |
| 1777774897 | 17.22° C | 36% | 1013.6 hPa | 0 mm | - | - | - |
| 1777774594 | 17.22° C | 34% | 1013.5 hPa | 0 mm | - | - | - |
| 1777774291 | 17.78° C | 34% | 1013.3 hPa | 0 mm | - | - | - |
| 1777773988 | 17.78° C | 34% | 1013.5 hPa | 0 mm | - | - | - |
| 1777773686 | 17.78° C | 34% | 1013.4 hPa | 0 mm | - | - | - |
| 1777773382 | 17.78° C | 34% | 1013.5 hPa | 0 mm | - | - | - |
| 1777773079 | 18.33° C | 34% | 1013.3 hPa | 0 mm | - | - | - |
| 1777772775 | 18.33° C | 34% | 1013.3 hPa | 0 mm | - | - | - |
| 1777772473 | 18.89° C | 33% | 1013.4 hPa | 0 mm | - | - | - |
* Rain latest hour (hover to see other rain measurements)
** Current wind speed in m/s (hover to see current wind gust speed)